Weather History for KCQX - October, 2012

Change the Weather History Date:

Monday, October 8, 2012

  Actual Average Record
Temperature  
Mean Temperature 50 °F -  
Max Temperature 57 °F 61 °F 73 °F (2005)
Min Temperature 46 °F 46 °F 35 °F (1999)
Degree Days  
Heating Degree Days 14    
Moisture  
Dew Point 46 °F    
Average Humidity 82    
Maximum Humidity 100    
Minimum Humidity 63    
Precipitation  
Precipitation 0.08 in - - ()
Sea Level Pressure  
Sea Level Pressure 30.19 in    
Wind  
Wind Speed 4 mph (NNW)    
Max Wind Speed 9 mph    
Max Gust Speed 22 mph    
Visibility 9 miles    
Events Rain    
Averages and records for this station are not official NWS values.
T = Trace of Precipitation, MM = Missing Value Source: NWS Daily Summary

Daily Weather History Graph

Daily Weather History Graph

Search for Another Location

Airport or City:

Trip Planner

Search our weather history database for the weather conditions in past years. The results will help you decide how hot, cold, wet, or windy it might be!

Date:

Astronomy

Oct. 08, 2012 Rise Set
Actual Time 6:44 AM EDT 6:09 PM EDT
Civil Twilight 6:17 AM EDT 6:36 PM EDT
Nautical Twilight 5:44 AM EDT 7:09 PM EDT
Astronomical Twilight 5:12 AM EDT 7:41 PM EDT
Moon No Moon Rise 2:01 PM EDT (10/8)
Length of Visible Light 12h 19m
Length of Day
11h 24m
Waning Gibbous, 46% of the Moon is Illuminated
Oct 8
Waning Gibbous
Oct 15
New
Oct 21
First Quarter
Oct 29
Full
Nov 6
Last Quarter

Hourly Weather History & Observations

Time (EDT) Temp. Dew Point Humidity Pressure Visibility Wind Dir Wind Speed Gust Speed Precip Events Conditions
12:32 AM 48.2 °F 48.2 °F 100% 30.05 in 4.0 mi WNW 4.6 mph - 0.01 in Rain Light Rain
12:42 AM 48.2 °F 48.2 °F 100% 30.06 in 4.0 mi Variable 3.5 mph - 0.01 in Rain Light Rain
12:52 AM 50.0 °F 48.0 °F 93% 30.06 in 6.0 mi WNW 3.5 mph - 0.01 in   Overcast
1:05 AM 50.0 °F 48.2 °F 94% 30.07 in 3.0 mi West 6.9 mph - 0.01 in Rain Light Rain
1:17 AM 50.0 °F 48.2 °F 94% 30.07 in 4.0 mi West 6.9 mph - 0.01 in Rain Light Rain
1:27 AM 50.0 °F 48.2 °F 94% 30.08 in 3.0 mi WNW 9.2 mph 17.3 mph 0.02 in Rain Light Rain
1:39 AM 48.2 °F 46.4 °F 93% 30.08 in 6.0 mi WNW 9.2 mph 21.9 mph 0.03 in Rain Light Rain
1:52 AM 48.9 °F 46.9 °F 93% 30.10 in 5.0 mi WNW 8.1 mph - 0.04 in Rain Rain
2:09 AM 48.2 °F 46.4 °F 93% 30.08 in 6.0 mi WNW 5.8 mph - 0.02 in Rain Light Rain
2:16 AM 48.2 °F 46.4 °F 93% 30.08 in 8.0 mi Variable 3.5 mph - 0.02 in Rain Light Rain
2:52 AM 48.0 °F 46.9 °F 96% 30.07 in 10.0 mi Variable 3.5 mph - 0.02 in   Overcast
3:52 AM 48.9 °F 46.0 °F 90% 30.08 in 10.0 mi Variable 4.6 mph - N/A   Overcast
4:52 AM 46.9 °F 45.0 °F 93% 30.10 in 10.0 mi Calm Calm - N/A   Partly Cloudy
5:17 AM 46.4 °F 44.6 °F 93% 30.10 in 10.0 mi Calm Calm - N/A   Mostly Cloudy
5:52 AM 46.0 °F 44.1 °F 93% 30.12 in 10.0 mi Calm Calm - N/A   Mostly Cloudy
6:52 AM 46.0 °F 44.1 °F 93% 30.14 in 10.0 mi Calm Calm - 0.01 in   Partly Cloudy
7:15 AM 46.4 °F 46.4 °F 100% 30.14 in 10.0 mi Calm Calm - N/A   Mostly Cloudy
7:23 AM 48.2 °F 46.4 °F 93% 30.14 in 10.0 mi Calm Calm - N/A   Mostly Cloudy
7:52 AM 50.0 °F 46.0 °F 86% 30.17 in 10.0 mi Calm Calm - N/A   Clear
8:52 AM 53.1 °F 46.9 °F 80% 30.19 in 10.0 mi Variable 3.5 mph - N/A   Partly Cloudy
9:14 AM 53.6 °F 46.4 °F 77% 30.20 in 10.0 mi North 5.8 mph - N/A   Mostly Cloudy
9:52 AM 54.0 °F 46.0 °F 75% 30.21 in 10.0 mi NNW 4.6 mph - N/A   Mostly Cloudy
10:24 AM 53.6 °F 46.4 °F 77% 30.22 in 10.0 mi Variable 5.8 mph - N/A   Mostly Cloudy
10:52 AM 54.0 °F 45.0 °F 72% 30.23 in 10.0 mi Variable 5.8 mph - N/A   Mostly Cloudy
11:03 AM 55.4 °F 44.6 °F 67% 30.23 in 10.0 mi NNE 5.8 mph - N/A   Scattered Clouds
11:43 AM 55.4 °F 44.6 °F 67% 30.24 in 10.0 mi North 4.6 mph - N/A   Mostly Cloudy
11:52 AM 55.0 °F 44.1 °F 67% 30.26 in 10.0 mi Variable 3.5 mph - N/A   Mostly Cloudy
11:59 AM 55.4 °F 44.6 °F 67% 30.25 in 10.0 mi Variable 3.5 mph - N/A   Mostly Cloudy
12:08 PM 55.4 °F 44.6 °F 67% 30.25 in 10.0 mi NNW 5.8 mph - N/A   Mostly Cloudy
12:32 PM 55.4 °F 44.6 °F 67% 30.26 in 10.0 mi NNW 3.5 mph - N/A   Mostly Cloudy
12:52 PM 55.0 °F 44.1 °F 67% 30.26 in 10.0 mi Calm Calm - N/A   Clear
1:52 PM 55.9 °F 44.1 °F 64% 30.26 in 10.0 mi NE 3.5 mph - N/A   Mostly Cloudy
2:06 PM 55.4 °F 42.8 °F 63% 30.25 in 10.0 mi Calm Calm - N/A   Overcast
2:52 PM 55.0 °F 44.1 °F 67% 30.27 in 10.0 mi Calm Calm - N/A   Overcast
2:59 PM 55.4 °F 44.6 °F 67% 30.26 in 10.0 mi Calm Calm - N/A   Overcast
3:52 PM 54.0 °F 46.0 °F 75% 30.27 in 10.0 mi Variable 3.5 mph - N/A   Overcast
4:17 PM 53.6 °F 46.4 °F 77% 30.27 in 10.0 mi North 3.5 mph - N/A   Overcast
4:52 PM 54.0 °F 46.0 °F 75% 30.27 in 10.0 mi Calm Calm - N/A   Scattered Clouds
5:52 PM 53.1 °F 46.0 °F 77% 30.30 in 10.0 mi North 3.5 mph - N/A   Mostly Cloudy
6:52 PM 53.1 °F 46.0 °F 77% 30.30 in 10.0 mi Calm Calm - 0.00 in   Scattered Clouds
8:52 PM 51.1 °F 48.0 °F 89% 30.33 in 10.0 mi Calm Calm - N/A   Mostly Cloudy
9:52 PM 52.0 °F 48.9 °F 89% 30.32 in 10.0 mi Calm Calm - N/A   Overcast
10:52 PM 54.0 °F 46.0 °F 75% 30.31 in 10.0 mi ENE 4.6 mph - N/A   Mostly Cloudy
11:52 PM 55.9 °F 46.0 °F 69% 30.30 in 10.0 mi East 5.8 mph - N/A   Overcast